Simultaneous Nadir Overpasses (SNOs) Predictions

Prediction of SNOs between GOES-14 and NOAA-20 Satellite Orbit:

Table of predicted SNOs for the next 14.0 days since TLE Epoch: 1/11/2019
Index Date Time (GOES-14) GOES-14 Lat,Lon NOAA-20 Lat,Lon Distance(km) Time Diff (sec)
1 01/12/2019 20:10:54 0.02,-104.07 0.63,-101.26 319.58 80
2 01/14/2019 08:32:45 -0.03,-104.32 0.47,-106.55 254.78 80
3 01/15/2019 08:11:20 -0.02,-104.32 -0.51,-102.01 261.67 80
4 01/16/2019 20:33:18 0.03,-104.08 -0.68,-107.32 369.06 80
5 01/17/2019 20:17:13 0.02,-104.08 0.30,-102.78 147.55 80
6 01/19/2019 08:38:50 -0.02,-104.32 0.85,-108.06 426.66 68
7 01/20/2019 08:17:39 -0.01,-104.32 -0.19,-103.53 89.50 80
8 01/22/2019 20:20:51 0.01,-104.07 -0.07,-104.29 25.88 80
9 01/23/2019 20:04:47 0.01,-104.07 0.98, -99.76 490.64 80
10 01/25/2019 08:23:57 -0.01,-104.32 0.18,-105.04 83.45 80




NCC Satellite Simultaneous Nadir Overpasses (SNOs) Prediction Service
